TimeCST,TemperatureF,Dew PointF,Humidity,Sea Level PressureIn,VisibilityMPH,Wind Direction,Wind SpeedMPH,Gust SpeedMPH,PrecipitationIn,Events,Conditions,WindDirDegrees,DateUTC
12:55 AM,23.2,12.0,62,30.20,10.0,SE,4.6,-,N/A,,Clear,130,2012-12-12 06:55:00
1:55 AM,21.4,10.9,64,30.19,10.0,ESE,5.8,-,N/A,,Clear,120,2012-12-12 07:55:00
2:55 AM,20.1,10.4,66,30.20,10.0,ESE,3.5,-,N/A,,Clear,120,2012-12-12 08:55:00
3:55 AM,19.4,11.1,70,30.19,10.0,East,6.9,-,N/A,,Clear,100,2012-12-12 09:55:00
4:55 AM,20.1,11.3,69,30.19,10.0,East,5.8,-,N/A,,Clear,100,2012-12-12 10:55:00
5:55 AM,18.5,10.2,70,30.20,10.0,ESE,5.8,-,N/A,,Clear,110,2012-12-12 11:55:00
6:55 AM,19.0,10.9,71,30.22,10.0,ESE,8.1,-,N/A,,Clear,110,2012-12-12 12:55:00
7:55 AM,20.3,11.8,70,30.24,10.0,ESE,5.8,-,N/A,,Clear,120,2012-12-12 13:55:00
8:55 AM,28.6,14.7,56,30.23,10.0,SE,8.1,-,N/A,,Clear,140,2012-12-12 14:55:00
9:55 AM,36.0,14.7,42,30.24,10.0,SSE,12.7,-,N/A,,Clear,160,2012-12-12 15:55:00
10:55 AM,42.8,15.8,34,30.22,10.0,SSE,15.0,-,N/A,,Clear,160,2012-12-12 16:55:00
11:55 AM,49.3,16.9,28,30.19,10.0,SSE,15.0,-,N/A,,Clear,160,2012-12-12 17:55:00
12:55 PM,54.0,18.1,25,30.14,10.0,South,18.4,26.5,N/A,,Clear,170,2012-12-12 18:55:00
1:55 PM,57.4,18.0,21,30.10,10.0,SSE,19.6,-,N/A,,Clear,150,2012-12-12 19:55:00
2:55 PM,58.3,18.7,21,30.07,10.0,South,21.9,27.6,N/A,,Clear,170,2012-12-12 20:55:00
3:55 PM,58.3,18.9,22,30.07,10.0,South,19.6,27.6,N/A,,Clear,170,2012-12-12 21:55:00
4:55 PM,56.8,18.7,23,30.06,10.0,SE,15.0,-,N/A,,Clear,140,2012-12-12 22:55:00
5:55 PM,50.0,18.3,29,30.08,10.0,SE,10.4,-,N/A,,Clear,130,2012-12-12 23:55:00
6:55 PM,45.9,18.1,33,30.10,10.0,SE,11.5,-,N/A,,Clear,130,2012-12-13 00:55:00
7:55 PM,46.0,18.7,34,30.10,10.0,SE,12.7,-,N/A,,Clear,130,2012-12-13 01:55:00
8:55 PM,43.0,18.3,37,30.12,10.0,SE,16.1,23.0,N/A,,Clear,130,2012-12-13 02:55:00
9:55 PM,40.3,18.5,42,30.12,10.0,SE,12.7,-,N/A,,Clear,130,2012-12-13 03:55:00
10:55 PM,39.4,19.4,45,30.12,10.0,SE,9.2,-,N/A,,Clear,130,2012-12-13 04:55:00
11:55 PM,36.9,19.0,49,30.13,10.0,SE,10.4,-,N/A,,Clear,140,2012-12-13 05:55:00